When you browse on this site, cookies collect data to enhance your experience and personalize the content and advertising you see.
Visit our Privacy Policy to learn more. By continuing to use the site, you agree to this use of cookies and data.
  • In Czech Republic
  • List of Countries
  • For 7 days
  • Water Temperature
  • Satellite Maps
  • Weather Map
  • Weather Widgets
  • user-avatar
    Login

    Hourly Weather Kyzylorda

    Today, 11 December, Tuesday

    Time Temperature Precipitation Wind Pressure Humidity
    00:00 0°C° 0 mm 1 mps 758 mmHg 71%
    01:00 -2°C° 0 mm 2 mps 758 mmHg 70%
    02:00 -2°C° 0 mm 2 mps 758 mmHg 69%
    03:00 -2°C° 0 mm 2 mps 758 mmHg 69%
    04:00 0°C° 0 mm 1 mps 758 mmHg 78%
    05:00 -1°C° 0 mm 1 mps 758 mmHg 78%
    06:00 -3°C° 0 mm 2 mps 758 mmHg 77%
    07:00 -3°C° 0 mm 2 mps 758 mmHg 76%
    08:00 -2°C° 0 mm 2 mps 759 mmHg 72%
    09:00 +1°C° 0 mm 1 mps 759 mmHg 67%
    10:00 +1°C° 0 mm 2 mps 759 mmHg 64%
    11:00 +1°C° 0 mm 2 mps 759 mmHg 62%
    12:00 +2°C° 0 mm 2 mps 759 mmHg 59%
    13:00 +2°C° 0 mm 2 mps 759 mmHg 56%
    14:00 +2°C° 0 mm 2 mps 759 mmHg 56%
    15:00 +1°C° 0 mm 2 mps 759 mmHg 56%
    16:00 -1°C° 0 mm 2 mps 759 mmHg 55%
    17:00 -1°C° 0 mm 3 mps 759 mmHg 54%
    18:00 -2°C° 0 mm 3 mps 759 mmHg 52%
    19:00 -2°C° 0 mm 3 mps 759 mmHg 50%
    20:00 -2°C° 0 mm 3 mps 759 mmHg 49%
    21:00 -4°C° 0 mm 3 mps 759 mmHg 48%
    22:00 -4°C° 0 mm 3 mps 759 mmHg 47%
    23:00 -4°C° 0 mm 3 mps 759 mmHg 48%

    Tomorrow, 12 December, Wednesday

    Time Temperature Precipitation Wind Pressure Humidity
    00:00 -4°C° 0 mm 3 mps 759 mmHg 48%
    01:00 -4°C° 0 mm 3 mps 759 mmHg 49%
    02:00 -4°C° 0 mm 3 mps 759 mmHg 51%
    03:00 -4°C° 0 mm 3 mps 759 mmHg 54%
    04:00 -4°C° 0 mm 3 mps 759 mmHg 57%
    05:00 -4°C° 0 mm 3 mps 759 mmHg 61%
    06:00 -4°C° 0 mm 3 mps 759 mmHg 65%
    07:00 -4°C° 0 mm 3 mps 759 mmHg 70%
    08:00 -2°C° 0 mm 3 mps 759 mmHg 70%
    09:00 -1°C° 0 mm 3 mps 759 mmHg 71%
    10:00 0°C° 0 mm 3 mps 759 mmHg 72%
    11:00 +1°C° 0 mm 3 mps 759 mmHg 69%
    12:00 +1°C° 0 mm 3 mps 759 mmHg 67%
    13:00 +2°C° 0 mm 3 mps 759 mmHg 64%
    14:00 +1°C° 0 mm 3 mps 758 mmHg 70%
    15:00 +1°C° 0 mm 3 mps 758 mmHg 75%
    16:00 0°C° 0 mm 3 mps 758 mmHg 80%
    17:00 -1°C° 0 mm 3 mps 758 mmHg 82%
    18:00 -1°C° 0 mm 3 mps 758 mmHg 84%
    19:00 -1°C° 0 mm 3 mps 758 mmHg 87%
    20:00 -1°C° 0 mm 3 mps 758 mmHg 86%
    21:00 -1°C° 0 mm 3 mps 758 mmHg 86%
    22:00 -2°C° 0 mm 3 mps 758 mmHg 86%
    23:00 -1°C° 0 mm 3 mps 758 mmHg 86%

    Day after tomorrow, 13 December, Thursday

    Time Temperature Precipitation Wind Pressure Humidity
    00:00 -1°C° 0 mm 3 mps 758 mmHg 85%
    01:00 -1°C° 0 mm 3 mps 758 mmHg 84%
    02:00 -1°C° 0 mm 3 mps 758 mmHg 84%
    03:00 -1°C° 0 mm 3 mps 757 mmHg 83%
    04:00 -1°C° 0 mm 3 mps 757 mmHg 83%
    05:00 -1°C° 0 mm 3 mps 757 mmHg 82%
    06:00 -1°C° 0 mm 3 mps 757 mmHg 81%
    07:00 -1°C° 0 mm 3 mps 757 mmHg 80%
    08:00 0°C° 0 mm 3 mps 757 mmHg 73%
    09:00 +1°C° 0 mm 3 mps 758 mmHg 66%
    10:00 +3°C° 0 mm 3 mps 758 mmHg 60%
    11:00 +3°C° 0 mm 3 mps 757 mmHg 56%
    12:00 +4°C° 0 mm 3 mps 757 mmHg 53%
    13:00 +5°C° 0 mm 3 mps 757 mmHg 50%
    14:00 +4°C° 0 mm 3 mps 757 mmHg 53%
    15:00 +3°C° 0 mm 3 mps 756 mmHg 57%
    16:00 +1°C° 0 mm 4 mps 756 mmHg 60%
    17:00 +1°C° 0 mm 4 mps 756 mmHg 63%
    18:00 +1°C° 0 mm 4 mps 756 mmHg 65%
    19:00 +1°C° 0 mm 4 mps 756 mmHg 67%
    20:00 +1°C° 0 mm 4 mps 756 mmHg 69%
    21:00 +1°C° 0 mm 4 mps 756 mmHg 71%
    22:00 +1°C° 0 mm 4 mps 756 mmHg 73%
    23:00 +1°C° 0 mm 4 mps 755 mmHg 73%

    14 December, Friday

    Time Temperature Precipitation Wind Pressure Humidity
    00:00 +1°C° 0 mm 4 mps 755 mmHg 73%
    01:00 +1°C° 0 mm 4 mps 755 mmHg 72%
    02:00 +1°C° 0 mm 4 mps 755 mmHg 71%
    03:00 +1°C° 0 mm 5 mps 754 mmHg 69%
    04:00 +1°C° 0 mm 5 mps 754 mmHg 67%
    05:00 +1°C° 0 mm 5 mps 754 mmHg 66%
    06:00 +1°C° 0 mm 5 mps 754 mmHg 64%
    07:00 +1°C° 0 mm 5 mps 754 mmHg 63%
    08:00 +2°C° 0 mm 6 mps 754 mmHg 57%
    09:00 +3°C° 0 mm 6 mps 754 mmHg 51%
    10:00 +5°C° 0 mm 7 mps 754 mmHg 45%
    11:00 +7°C° 0 mm 6 mps 753 mmHg 41%
    12:00 +8°C° 0 mm 6 mps 753 mmHg 37%
    13:00 +9°C° 0 mm 6 mps 753 mmHg 34%
    14:00 +8°C° 0 mm 6 mps 753 mmHg 35%
    15:00 +7°C° 0 mm 5 mps 753 mmHg 37%
    16:00 +7°C° 0 mm 4 mps 753 mmHg 38%
    17:00 +6°C° 0 mm 5 mps 753 mmHg 44%
    18:00 +6°C° 0 mm 5 mps 754 mmHg 49%
    19:00 +5°C° 0 mm 5 mps 754 mmHg 54%
    20:00 +3°C° 0 mm 5 mps 755 mmHg 66%
    21:00 +3°C° 0 mm 5 mps 755 mmHg 78%
    22:00 +3°C° 0 mm 6 mps 755 mmHg 90%
    23:00 +2°C° 0 mm 5 mps 756 mmHg 91%

    15 December, Saturday

    Time Temperature Precipitation Wind Pressure Humidity
    00:00 +2°C° 0 mm 5 mps 756 mmHg 91%
    01:00 +1°C° 0 mm 4 mps 757 mmHg 91%
    02:00 +1°C° 0 mm 4 mps 757 mmHg 92%
    03:00 0°C° 0 mm 4 mps 757 mmHg 93%
    04:00 +1°C° 0 mm 3 mps 757 mmHg 93%
    05:00 +1°C° 0 mm 3 mps 758 mmHg 93%
    06:00 0°C° 0 mm 3 mps 758 mmHg 94%
    07:00 0°C° 0 mm 3 mps 758 mmHg 94%
    08:00 +1°C° 0 mm 3 mps 759 mmHg 90%
    09:00 +3°C° 0 mm 2 mps 759 mmHg 86%
    10:00 +4°C° 0 mm 2 mps 759 mmHg 82%
    11:00 +3°C° 0 mm 3 mps 759 mmHg 78%
    12:00 +4°C° 0 mm 3 mps 759 mmHg 73%
    13:00 +5°C° 0 mm 3 mps 759 mmHg 68%
    14:00 +5°C° 0 mm 2 mps 759 mmHg 70%
    15:00 +5°C° 0 mm 2 mps 759 mmHg 71%
    16:00 +5°C° 0 mm 1 mps 759 mmHg 73%
    17:00 +5°C° 0 mm 1 mps 759 mmHg 75%
    18:00 +5°C° 0 mm 1 mps 759 mmHg 76%
    19:00 +4°C° 0 mm 0 mps 759 mmHg 78%
    20:00 +5°C° 0.1 mm 1 mps 759 mmHg 78%
    21:00 +4°C° 0.1 mm 1 mps 759 mmHg 78%
    22:00 +4°C° 0.1 mm 1 mps 759 mmHg 79%
    23:00 +4°C° 0.1 mm 1 mps 759 mmHg 80%

    16 December, Sunday

    Time Temperature Precipitation Wind Pressure Humidity
    00:00 +4°C° 0.1 mm 1 mps 758 mmHg 81%
    01:00 +3°C° 0.1 mm 2 mps 758 mmHg 83%
    02:00 +2°C° 0.2 mm 2 mps 758 mmHg 84%
    03:00 +2°C° 0.2 mm 2 mps 759 mmHg 84%
    04:00 +2°C° 0.2 mm 2 mps 759 mmHg 85%
    05:00 +2°C° 0.1 mm 2 mps 759 mmHg 87%
    06:00 +2°C° 0.1 mm 2 mps 759 mmHg 88%
    07:00 +3°C° 0.1 mm 1 mps 760 mmHg 89%
    08:00 +3°C° 0 mm 1 mps 760 mmHg 86%
    09:00 +4°C° 0 mm 1 mps 760 mmHg 83%
    10:00 +4°C° 0 mm 1 mps 761 mmHg 80%
    11:00 +4°C° 0 mm 2 mps 761 mmHg 76%
    12:00 +4°C° 0 mm 2 mps 761 mmHg 71%
    13:00 +5°C° 0 mm 2 mps 761 mmHg 67%
    14:00 +4°C° 0 mm 2 mps 761 mmHg 68%
    15:00 +4°C° 0 mm 2 mps 761 mmHg 69%
    16:00 +4°C° 0 mm 1 mps 761 mmHg 71%
    17:00 +4°C° 0 mm 1 mps 762 mmHg 72%
    18:00 +3°C° 0 mm 1 mps 762 mmHg 74%
    19:00 +3°C° 0 mm 1 mps 762 mmHg 75%
    20:00 +2°C° 0 mm 2 mps 762 mmHg 76%
    21:00 +2°C° 0 mm 2 mps 762 mmHg 76%
    22:00 +2°C° 0 mm 2 mps 762 mmHg 76%
    23:00 +1°C° 0 mm 3 mps 762 mmHg 77%
    Show more